Regional Weather Roundup
Issued by NWS

Home | Current Version | Previous Version | Graphics & Text | Print | Product List | Glossary On
Versions: 1 2 3 4 5 6 7 8 9 10 11 12 13 14 15 16 17 18 19 20 21 22 23 24 25 26 27 28 29 30 31 32 33 34 35 36 37 38 39 40 41 42 43 44 45 46 47 48 49 50
000
ASUS43 KFSD 020410
RWRSD

WEATHER ROUNDUP FOR SOUTH DAKOTA
NATIONAL WEATHER SERVICE SIOUX FALLS SD
1000 PM CST THU DEC 01 2016

NOTE: "FAIR" INDICATES FEW OR NO CLOUDS BELOW 12,000 FEET WITH NO
SIGNIFICANT WEATHER AND/OR OBSTRUCTIONS TO VISIBILITY.


SDZ001>005-009-010-012>017-020500-
NORTHWEST AND NORTH CENTRAL SOUTH DAKOTA

CITY           SKY/WX    TMP DP  RH WIND       PRES   REMARKS
BUFFALO          N/A     25  23  92 E5        29.94R WCI  19
FAITH            N/A     26  26 100 CALM      30.03R
MOBRIDGE       CLOUDY    30  25  81 MISG      30.03R
$$

SDZ012>016-024>037-041>051-057-063-072>074-020500-
SOUTHWEST AND SOUTH CENTRAL SOUTH DAKOTA

CITY           SKY/WX    TMP DP  RH WIND       PRES   REMARKS
RAPID CTY ARPT CLOUDY    24  20  84 CALM      30.01R
PIERRE         CLOUDY    29  26  89 NW5       30.04S WCI  24
CUSTER         CLOUDY    24  14  65 CALM      29.93R
ELLSWORTH AFB  CLOUDY    25  20  84 CALM      30.00R
PHILIP         CLOUDY    24  23  96 W3        30.05R
PINE RIDGE     CLOUDY    26  22  84 CALM      30.01R
SPEARFISH      CLOUDY    25  19  80 SW3       29.99R
WINNER         MOCLDY    26  23  88 W5        30.05R WCI  20
$$

SDZ004>011-016>023-039-040-020500-
NORTHEAST SOUTH DAKOTA

CITY           SKY/WX    TMP DP  RH WIND       PRES   REMARKS
ABERDEEN       CLOUDY    30  24  78 N7        30.07R WCI  23
WATERTOWN      CLOUDY    27  24  89 N8        30.02R WCI  19
BROOKINGS      CLOUDY    30  28  92 N5        30.02R WCI  25
SISSETON         N/A     29  25  85 NW9       30.05R WCI  20
$$

SDZ017-020-022-023-036>040-048>070-020500-
SOUTHEAST SOUTH DAKOTA

CITY           SKY/WX    TMP DP  RH WIND       PRES   REMARKS
SIOUX FALLS    CLOUDY    33  31  92 NW6       30.03R WCI  28
HURON          CLOUDY    32  31  96 NE8       30.06R WCI  25
CHAMBERLAIN    LGT SNOW  31  31 100 W6        30.06R WCI  25
MITCHELL       CLOUDY    32  31  96 NW6       30.06R WCI  26
YANKTON        CLOUDY    32  28  86 W6        30.06R WCI  26
$$

ABBREVIATIONS USED IN REMARKS
   TC - TEMPERATURE IN CELSIUS
  WCI - WIND CHILL INDEX
   HX - HEAT INDEX
  VSB - VISIBILITY





USA.gov is the U.S. government's official web portal to all federal, state and local government web resources and services.